Total_Precipitation_Accumulation
0.20 0.18 0.29 0.70 0.25 0.22 0.11 0.08 0.06 0.02 0.04 0.04 0.01 0.03 0.03 0.00 0.00 0.00 0.00 0.00 0.00 0.00 0.00 0.00 0.00 0.00 0.00 0.00 0.00 0.00 0.00 0.00 0.00 0.00 0.00 0.00 0.00 0.00 0.00 0.00 0.00 0.00 0.00 0.00 0.00 0.00 0.00 0.00 0.00 0.00 0.00 0.00 0.00 0.00 0.00 0.00 0.00 0.00 0.00 0.00 0.00 0.00 0.00 0.00 0.00 0.00 0.00 0.00 0.00 0.00 0.00 0.00 0.00 0.00 0.00 0.00 0.00 0.00 0.00 0.00 0.00 0.00 0.00 0.00 0.00
0.07 0.34 0.61 0.55 0.13 0.08 0.03 0.03 0.05 0.03 0.01 0.06 0.04 0.08 0.02 0.00 0.01 0.00 0.00 0.00 0.01 0.00 0.00 0.00 0.00 0.00 0.00 0.00 0.00 0.00 0.00 0.00 0.00 0.00 0.00 0.00 0.00 0.00 0.00 0.00 0.00 0.00 0.00 0.00 0.00 0.00 0.00 0.00 0.00 0.00 0.00 0.00 0.00 0.00 0.00 0.00 0.00 0.00 0.00 0.00 0.00 0.00 0.00 0.00 0.00 0.00 0.00 0.00 0.00 0.00 0.00 0.00 0.00 0.00 0.00 0.00 0.00 0.00 0.00 0.00 0.00 0.00 0.00 0.00 0.00
0.06 0.12 0.12 0.07 0.03 0.03 0.03 0.01 0.01 0.04 0.01 0.02 0.07 0.11 0.04 0.15 0.04 0.01 0.01 0.01 0.01 0.00 0.01 0.01 0.01 0.00 0.00 0.00 0.00 0.00 0.00 0.00 0.00 0.00 0.00 0.00 0.00 0.00 0.00 0.00 0.00 0.00 0.00 0.00 0.00 0.00 0.00 0.00 0.00 0.00 0.00 0.00 0.00 0.00 0.00 0.00 0.00 0.00 0.00 0.00 0.00 0.00 0.00 0.00 0.00 0.00 0.00 0.00 0.00 0.00 0.00 0.00 0.00 0.00 0.00 0.00 0.00 0.00 0.00 0.00 0.00 0.00 0.00 0.00 0.00
0.52 0.30 0.07 0.04 0.25 0.43 0.22 0.09 0.04 0.03 0.05 0.04 0.08 0.01 0.01 0.04 0.06 0.15 0.04 0.09 0.01 0.01 0.01 0.00 0.00 0.00 0.00 0.00 0.00 0.00 0.00 0.00 0.00 0.00 0.00 0.00 0.00 0.00 0.00 0.00 0.00 0.00 0.00 0.00 0.00 0.00 0.00 0.00 0.00 0.00 0.00 0.00 0.00 0.00 0.00 0.00 0.00 0.00 0.00 0.00 0.00 0.00 0.00 0.00 0.00 0.00 0.00 0.00 0.00 0.00 0.00 0.00 0.00 0.00 0.00 0.00 0.00 0.00 0.00 0.00 0.00 0.00 0.00 0.00 0.00
0.05 0.04 0.16 0.29 0.32 0.23 0.31 0.40 0.23 0.19 0.18 0.25 0.09 0.03 0.02 0.10 0.28 0.29 0.10 0.13 0.14 0.10 0.01 0.00 0.00 0.00 0.01 0.01 0.00 0.00 0.00 0.00 0.00 0.00 0.00 0.00 0.00 0.00 0.00 0.00 0.00 0.00 0.00 0.00 0.00 0.00 0.00 0.00 0.00 0.00 0.00 0.00 0.00 0.00 0.00 0.00 0.00 0.00 0.00 0.00 0.00 0.00 0.00 0.00 0.00 0.00 0.00 0.00 0.00 0.00 0.00 0.00 0.00 0.00 0.00 0.00 0.00 0.00 0.00 0.00 0.00 0.00 0.00 0.00 0.00
0.40 0.29 0.19 0.14 0.17 0.36 0.48 0.55 0.38 0.29 0.42 0.43 0.40 0.59 0.42 0.32 0.27 0.16 0.07 0.17 0.13 0.09 0.07 0.12 0.05 0.11 0.18 0.01 0.03 0.04 0.02 0.00 0.00 0.00 0.00 0.00 0.00 0.00 0.00 0.00 0.01 0.01 0.01 0.00 0.00 0.00 0.00 0.00 0.00 0.00 0.00 0.00 0.00 0.00 0.00 0.00 0.00 0.00 0.00 0.00 0.00 0.00 0.00 0.00 0.00 0.00 0.00 0.00 0.00 0.00 0.00 0.00 0.00 0.00 0.00 0.00 0.00 0.00 0.00 0.00 0.00 0.00 0.00 0.00 0.00
0.32 0.49 0.23 0.19 0.81 0.43 0.16 0.24 0.47 0.97 1.12 1.02 0.85 0.64 0.71 0.77 0.72 0.54 0.31 0.25 0.36 0.52 0.47 0.37 0.32 0.19 0.09 0.02 0.02 0.01 0.06 0.08 0.03 0.02 0.02 0.04 0.02 0.02 0.02 0.02 0.01 0.00 0.01 0.01 0.01 0.00 0.01 0.01 0.00 0.00 0.00 0.01 0.07 0.00 0.01 0.00 0.00 0.00 0.00 0.00 0.00 0.00 0.00 0.00 0.00 0.00 0.00 0.00 0.00 0.00 0.00 0.00 0.00 0.00 0.00 0.00 0.00 0.00 0.00 0.00 0.00 0.00 0.00 0.00 0.00
0.06 0.06 0.16 0.57 0.44 0.32 0.33 0.79 0.75 0.62 0.53 0.64 0.88 0.80 0.96 0.85 0.77 0.70 0.75 0.51 0.56 0.51 0.50 0.45 0.39 0.21 0.19 0.19 0.20 0.14 0.10 0.17 0.17 0.14 0.12 0.15 0.07 0.05 0.05 0.03 0.04 0.04 0.04 0.03 0.06 0.26 0.29 0.05 0.06 0.44 0.23 0.02 0.01 0.00 0.00 0.00 0.00 0.00 0.00 0.00 0.00 0.00 0.00 0.00 0.00 0.00 0.00 0.00 0.00 0.00 0.00 0.00 0.00 0.00 0.00 0.00 0.00 0.00 0.00 0.00 0.00 0.00 0.00 0.00 0.00
0.01 0.03 0.03 0.13 0.28 0.26 0.66 0.57 0.34 0.31 0.28 0.47 0.84 0.96 0.73 0.54 0.54 0.56 0.46 0.38 0.41 0.38 0.41 0.47 0.21 0.18 0.16 0.14 0.14 0.26 0.14 0.18 0.12 0.25 0.20 0.19 0.12 0.12 0.15 0.12 0.09 0.06 0.05 0.02 0.02 0.05 0.05 0.10 0.04 0.00 0.00 0.00 0.00 0.00 0.01 0.00 0.00 0.00 0.00 0.00 0.00 0.00 0.00 0.00 0.00 0.00 0.00 0.00 0.00 0.00 0.00 0.00 0.00 0.00 0.00 0.00 0.00 0.00 0.00 0.00 0.00 0.00 0.00 0.00 0.00
0.01 0.01 0.01 0.05 0.04 0.09 0.16 0.12 0.30 0.13 0.36 0.25 0.14 0.26 0.22 0.39 0.32 0.32 0.36 0.39 0.32 0.30 0.23 0.24 0.27 0.33 0.24 0.17 0.58 0.40 0.66 0.23 0.22 0.10 0.09 0.12 0.14 0.13 0.06 0.08 0.07 0.04 0.04 0.04 0.07 0.07 0.04 0.02 0.02 0.00 0.00 0.00 0.00 0.00 0.00 0.00 0.00 0.00 0.00 0.01 0.00 0.00 0.00 0.00 0.01 0.00 0.00 0.00 0.00 0.00 0.00 0.00 0.00 0.00 0.00 0.00 0.00 0.00 0.00 0.00 0.00 0.00 0.00 0.00 0.00
0.00 0.00 0.00 0.00 0.01 0.02 0.01 0.00 0.00 0.03 0.03 0.01 0.02 0.05 0.03 0.04 0.06 0.05 0.06 0.11 0.21 0.38 0.35 0.38 0.23 1.04 0.48 0.39 0.22 0.09 0.05 0.03 0.04 0.04 0.02 0.01 0.01 0.01 0.15 0.11 0.05 0.04 0.05 0.07 0.04 0.11 0.07 0.19 0.36 0.24 0.04 0.02 0.73 0.03 0.03 0.00 0.02 0.00 0.00 0.00 0.00 0.02 0.00 0.00 0.00 0.00 0.00 0.01 0.00 0.00 0.00 0.00 0.00 0.00 0.00 0.00 0.00 0.00 0.00 0.00 0.00 0.00 0.00 0.00 0.00
0.02 0.02 0.02 0.01 0.02 0.00 0.00 0.01 0.00 0.01 0.02 0.01 0.01 0.02 0.04 0.03 0.12 0.23 0.08 0.22 0.69 0.53 0.09 0.11 0.39 0.45 0.47 0.35 0.35 0.34 0.22 0.14 0.10 0.08 0.02 0.01 0.02 0.09 0.06 0.03 0.04 0.03 0.04 0.04 0.06 0.07 0.34 0.66 0.74 0.21 0.08 0.05 0.03 0.11 0.03 0.01 0.00 0.00 0.00 0.00 0.00 0.00 0.00 0.00 0.00 0.00 0.00 0.00 0.00 0.00 0.00 0.00 0.00 0.00 0.00 0.00 0.00 0.00 0.00 0.00 0.00 0.00 0.00 0.00 0.00
0.00 0.00 0.00 0.00 0.00 0.00 0.00 0.00 0.01 0.01 0.02 0.01 0.01 0.02 0.02 0.01 0.02 0.03 0.08 0.08 0.17 0.14 0.25 0.18 0.11 0.07 0.06 0.25 0.15 0.13 0.09 0.03 0.11 0.13 0.17 0.16 0.17 0.20 0.08 0.08 0.06 0.14 0.08 0.06 0.17 0.17 0.23 0.36 0.29 0.37 0.07 0.05 0.02 0.01 0.01 0.00 0.00 0.00 0.00 0.00 0.00 0.00 0.00 0.00 0.00 0.00 0.00 0.00 0.00 0.00 0.00 0.00 0.00 0.00 0.00 0.00 0.00 0.00 0.00 0.00 0.00 0.00 0.00 0.00 0.00
0.00 0.00 0.00 0.00 0.00 0.00 0.00 0.00 0.00 0.00 0.01 0.01 0.01 0.01 0.02 0.04 0.02 0.03 0.03 0.07 0.05 0.08 0.10 0.05 0.05 0.14 0.05 0.05 0.09 0.23 0.38 0.13 0.20 0.13 0.08 0.06 0.07 0.11 0.08 0.05 0.06 0.05 0.09 0.18 0.21 0.19 0.19 0.18 0.27 0.27 0.19 0.08 0.10 0.01 0.00 0.00 0.00 0.00 0.00 0.00 0.00 0.00 0.00 0.00 0.00 0.00 0.00 0.00 0.00 0.00 0.00 0.00 0.00 0.00 0.00 0.00 0.00 0.00 0.00 0.00 0.00 0.00 0.00 0.00 0.00
0.00 0.00 0.00 0.00 0.00 0.00 0.00 0.00 0.00 0.00 0.00 0.00 0.01 0.01 0.01 0.02 0.01 0.01 0.01 0.02 0.04 0.11 0.04 0.10 0.10 0.21 0.25 0.29 0.49 0.52 0.31 0.29 0.10 0.08 0.11 0.04 0.06 0.06 0.20 0.13 0.11 0.06 0.09 0.08 0.15 0.05 0.17 0.13 0.11 0.13 0.13 0.04 0.00 0.00 0.00 0.00 0.00 0.00 0.00 0.00 0.00 0.00 0.00 0.00 0.00 0.00 0.00 0.00 0.00 0.00 0.00 0.00 0.00 0.00 0.00 0.00 0.00 0.00 0.00 0.00 0.00 0.00 0.00 0.00 0.00
0.00 0.00 0.00 0.00 0.00 0.00 0.00 0.00 0.00 0.00 0.00 0.00 0.00 0.01 0.01 0.02 0.02 0.03 0.02 0.02 0.02 0.06 0.03 0.08 0.09 0.14 0.13 0.16 0.17 0.92 0.65 0.23 0.19 0.11 0.04 0.12 0.30 0.20 0.15 0.14 0.17 0.06 0.25 0.13 0.08 0.07 0.04 0.05 0.05 0.01 0.04 0.02 0.00 0.00 0.00 0.00 0.00 0.00 0.00 0.00 0.00 0.00 0.00 0.00 0.00 0.00 0.00 0.00 0.00 0.00 0.00 0.00 0.00 0.00 0.00 0.00 0.00 0.00 0.00 0.00 0.00 0.00 0.00 0.00 0.00
0.01 0.01 0.02 0.00 0.00 0.01 0.00 0.00 0.00 0.00 0.00 0.00 0.00 0.00 0.00 0.01 0.01 0.02 0.02 0.02 0.02 0.02 0.07 0.05 0.04 0.08 0.05 0.15 0.15 0.24 0.09 0.10 0.01 0.00 0.00 0.00 0.12 0.03 0.02 0.09 0.13 0.17 0.14 0.10 0.02 0.03 0.06 0.05 0.01 0.00 0.00 0.00 0.00 0.00 0.00 0.00 0.00 0.00 0.00 0.00 0.00 0.00 0.00 0.00 0.00 0.00 0.00 0.00 0.00 0.00 0.00 0.00 0.00 0.00 0.00 0.00 0.00 0.00 0.00 0.00 0.00 0.00 0.00 0.00 0.00
0.04 0.03 0.03 0.04 0.02 0.00 0.00 0.00 0.00 0.00 0.00 0.00 0.00 0.00 0.00 0.00 0.00 0.00 0.01 0.02 0.02 0.02 0.02 0.03 0.03 0.04 0.10 0.08 0.15 0.37 0.62 0.47 0.01 0.00 0.00 0.00 0.01 0.03 0.02 0.02 0.04 0.02 0.01 0.03 0.07 0.09 0.05 0.00 0.00 0.01 0.00 0.00 0.00 0.00 0.00 0.00 0.00 0.00 0.00 0.00 0.00 0.00 0.00 0.00 0.00 0.00 0.00 0.00 0.00 0.00 0.00 0.00 0.00 0.00 0.00 0.00 0.00 0.00 0.00 0.00 0.00 0.00 0.00 0.00 0.00
0.00 0.00 0.00 0.00 0.00 0.00 0.00 0.00 0.00 0.00 0.00 0.00 0.00 0.00 0.00 0.00 0.00 0.00 0.00 0.00 0.01 0.03 0.02 0.02 0.03 0.03 0.05 0.07 0.10 0.08 0.07 0.01 0.00 0.00 0.00 0.00 0.04 0.23 0.14 0.06 0.03 0.05 0.03 0.04 0.01 0.01 0.00 0.00 0.00 0.00 0.00 0.00 0.00 0.00 0.00 0.00 0.00 0.00 0.00 0.00 0.00 0.00 0.00 0.00 0.00 0.00 0.00 0.00 0.00 0.00 0.00 0.00 0.00 0.00 0.00 0.00 0.00 0.00 0.00 0.00 0.00 0.00 0.00 0.00 0.00
0.01 0.01 0.00 0.00 0.00 0.00 0.01 0.00 0.00 0.00 0.00 0.00 0.01 0.00 0.00 0.00 0.00 0.00 0.00 0.00 0.02 0.03 0.02 0.02 0.02 0.02 0.05 0.02 0.02 0.06 0.09 0.02 0.00 0.00 0.00 0.00 0.00 0.11 0.05 0.02 0.29 0.04 0.09 0.00 0.00 0.00 0.00 0.00 0.00 0.00 0.00 0.00 0.00 0.00 0.00 0.00 0.00 0.00 0.00 0.00 0.00 0.00 0.00 0.00 0.00 0.00 0.00 0.00 0.00 0.00 0.00 0.00 0.00 0.00 0.00 0.00 0.00 0.00 0.00 0.00 0.00 0.00 0.00 0.00 0.00
0.01 0.01 0.01 0.00 0.00 0.01 0.00 0.00 0.00 0.00 0.00 0.00 0.00 0.00 0.01 0.00 0.00 0.00 0.01 0.02 0.03 0.02 0.01 0.01 0.01 0.01 0.01 0.03 0.03 0.05 0.13 0.03 0.02 0.00 0.00 0.00 0.00 0.00 0.02 0.05 0.09 0.09 0.02 0.03 0.00 0.00 0.00 0.00 0.00 0.00 0.00 0.00 0.00 0.00 0.00 0.00 0.00 0.00 0.00 0.00 0.00 0.00 0.00 0.00 0.00 0.00 0.00 0.00 0.00 0.00 0.00 0.00 0.00 0.00 0.00 0.00 0.00 0.00 0.00 0.00 0.00 0.00 0.00 0.00 0.00
0.00 0.00 0.00 0.00 0.00 0.00 0.00 0.00 0.00 0.00 0.00 0.00 0.00 0.00 0.00 0.01 0.01 0.04 0.01 0.03 0.01 0.01 0.01 0.01 0.02 0.01 0.00 0.01 0.05 0.03 0.02 0.02 0.00 0.03 0.00 0.00 0.00 0.01 0.00 0.03 0.01 0.01 0.03 0.02 0.00 0.00 0.00 0.00 0.00 0.00 0.00 0.00 0.00 0.00 0.00 0.00 0.00 0.00 0.00 0.00 0.00 0.00 0.00 0.00 0.00 0.00 0.00 0.00 0.00 0.00 0.00 0.00 0.00 0.00 0.00 0.00 0.00 0.00 0.00 0.00 0.00 0.00 0.01 0.00 0.00
0.00 0.00 0.00 0.00 0.00 0.00 0.00 0.00 0.00 0.00 0.00 0.00 0.00 0.00 0.01 0.00 0.01 0.01 0.02 0.04 0.03 0.02 0.03 0.02 0.03 0.02 0.03 0.00 0.04 0.03 0.02 0.00 0.00 0.00 0.00 0.01 0.00 0.01 0.01 0.01 0.01 0.00 0.00 0.00 0.00 0.02 0.01 0.00 0.00 0.00 0.00 0.00 0.00 0.00 0.00 0.00 0.00 0.00 0.00 0.00 0.00 0.00 0.00 0.00 0.00 0.00 0.00 0.00 0.00 0.00 0.00 0.00 0.00 0.00 0.00 0.00 0.00 0.00 0.00 0.00 0.00 0.00 0.00 0.00 0.00
0.00 0.00 0.00 0.00 0.00 0.01 0.01 0.00 0.00 0.00 0.00 0.00 0.00 0.00 0.01 0.02 0.01 0.01 0.01 0.01 0.02 0.03 0.02 0.01 0.05 0.09 0.03 0.03 0.08 0.03 0.01 0.01 0.00 0.01 0.00 0.00 0.01 0.00 0.00 0.00 0.00 0.00 0.00 0.00 0.00 0.00 0.00 0.00 0.00 0.00 0.00 0.00 0.00 0.00 0.00 0.00 0.00 0.00 0.00 0.00 0.00 0.00 0.00 0.00 0.00 0.00 0.00 0.00 0.00 0.00 0.00 0.00 0.00 0.00 0.00 0.00 0.00 0.00 0.00 0.00 0.00 0.00 0.00 0.00 0.00
0.00 0.00 0.00 0.00 0.00 0.00 0.00 0.06 0.02 0.10 0.01 0.01 0.01 0.02 0.09 0.21 0.01 0.01 0.01 0.01 0.02 0.04 0.02 0.01 0.02 0.11 0.11 0.20 0.10 0.10 0.02 0.12 0.04 0.03 0.01 0.01 0.01 0.00 0.00 0.00 0.00 0.00 0.00 0.00 0.01 0.01 0.00 0.01 0.00 0.00 0.00 0.00 0.00 0.00 0.00 0.00 0.00 0.00 0.00 0.00 0.00 0.00 0.00 0.00 0.00 0.00 0.01 0.00 0.00 0.00 0.00 0.00 0.00 0.00 0.00 0.00 0.00 0.00 0.00 0.00 0.00 0.00 0.00 0.00 0.00
0.00 0.00 0.00 0.00 0.00 0.00 0.00 0.00 0.00 0.00 0.02 0.21 0.02 0.02 0.02 0.04 0.18 0.36 0.14 0.06 0.07 0.06 0.05 0.04 0.04 0.05 0.10 0.20 0.22 0.11 0.13 0.05 0.01 0.12 0.14 0.05 0.02 0.01 0.02 0.00 0.02 0.00 0.01 0.02 0.09 0.00 0.00 0.00 0.00 0.00 0.00 0.00 0.00 0.00 0.00 0.00 0.00 0.00 0.00 0.00 0.00 0.00 0.00 0.00 0.00 0.01 0.00 0.01 0.00 0.00 0.00 0.00 0.00 0.00 0.00 0.00 0.00 0.00 0.00 0.00 0.00 0.00 0.00 0.00 0.00
0.00 0.00 0.00 0.00 0.00 0.00 0.00 0.01 0.01 0.02 0.06 0.01 0.09 0.02 0.06 0.11 0.08 0.08 0.45 0.31 0.66 0.14 0.34 0.30 0.20 0.34 0.19 0.07 0.33 0.61 0.50 0.12 0.01 0.01 0.01 0.02 0.01 0.03 0.00 0.00 0.01 0.03 0.01 0.01 0.00 0.00 0.00 0.00 0.00 0.00 0.00 0.00 0.00 0.00 0.00 0.00 0.00 0.00 0.00 0.00 0.00 0.01 0.01 0.00 0.01 0.01 0.01 0.01 0.01 0.00 0.00 0.00 0.00 0.00 0.00 0.00 0.00 0.00 0.00 0.00 0.01 0.00 0.00 0.00 0.02
0.01 0.01 0.01 0.01 0.00 0.00 0.01 0.01 0.01 0.01 0.02 0.01 0.01 0.03 0.14 0.03 0.09 0.02 0.03 0.06 0.12 0.52 0.32 0.23 0.21 0.06 0.11 0.09 0.07 0.04 0.10 0.07 0.08 0.01 0.03 0.02 0.01 0.02 0.02 0.04 0.02 0.00 0.00 0.00 0.00 0.00 0.00 0.00 0.00 0.00 0.00 0.00 0.00 0.00 0.00 0.00 0.00 0.00 0.00 0.00 0.00 0.00 0.00 0.00 0.00 0.00 0.00 0.00 0.00 0.00 0.00 0.00 0.01 0.01 0.00 0.01 0.01 0.01 0.01 0.01 0.02 0.01 0.01 0.02 0.06
0.00 0.00 0.01 0.01 0.01 0.02 0.01 0.01 0.02 0.02 0.04 0.02 0.01 0.05 0.13 0.04 0.05 0.03 0.12 0.07 0.14 0.38 0.52 0.37 0.55 0.77 0.20 0.33 0.21 0.07 0.10 0.06 0.07 0.00 0.01 0.00 0.02 0.00 0.00 0.01 0.00 0.00 0.00 0.01 0.00 0.00 0.00 0.00 0.00 0.00 0.00 0.00 0.00 0.00 0.00 0.00 0.00 0.00 0.00 0.00 0.00 0.00 0.00 0.00 0.00 0.00 0.00 0.00 0.00 0.00 0.00 0.00 0.01 0.02 0.01 0.01 0.01 0.01 0.00 0.01 0.01 0.02 0.02 0.05 0.07
0.01 0.01 0.01 0.01 0.01 0.01 0.03 0.02 0.08 0.21 0.05 0.03 0.02 0.02 0.01 0.02 0.05 0.03 0.22 0.08 0.05 0.07 0.02 0.19 0.11 0.17 0.23 0.21 0.12 0.17 0.09 0.08 0.04 0.03 0.00 0.00 0.00 0.00 0.00 0.00 0.01 0.00 0.00 0.00 0.01 0.00 0.00 0.00 0.00 0.00 0.00 0.00 0.00 0.00 0.00 0.00 0.00 0.00 0.00 0.00 0.00 0.00 0.00 0.00 0.00 0.00 0.00 0.00 0.00 0.00 0.00 0.00 0.00 0.01 0.01 0.01 0.01 0.01 0.01 0.02 0.02 0.03 0.07 0.05 0.05
0.01 0.01 0.01 0.01 0.01 0.01 0.02 0.02 0.03 0.03 0.04 0.04 0.04 0.03 0.05 0.02 0.01 0.01 0.04 0.03 0.05 0.04 0.04 0.13 0.19 0.07 0.22 0.20 0.19 0.11 0.08 0.04 0.03 0.01 0.01 0.01 0.01 0.05 0.01 0.01 0.01 0.00 0.00 0.00 0.00 0.00 0.00 0.00 0.00 0.00 0.00 0.00 0.00 0.00 0.00 0.00 0.00 0.00 0.00 0.00 0.00 0.00 0.00 0.00 0.00 0.00 0.00 0.00 0.00 0.00 0.00 0.01 0.01 0.01 0.01 0.01 0.01 0.01 0.01 0.01 0.02 0.02 0.03 0.04 0.06
0.01 0.01 0.01 0.01 0.02 0.01 0.04 0.06 0.14 0.04 0.02 0.02 0.03 0.03 0.07 0.15 0.09 0.09 0.06 0.02 0.02 0.02 0.03 0.01 0.02 0.04 0.04 0.08 0.20 0.14 0.33 0.09 0.06 0.07 0.03 0.02 0.03 0.01 0.01 0.01 0.00 0.00 0.00 0.00 0.00 0.00 0.00 0.00 0.00 0.00 0.00 0.00 0.00 0.00 0.00 0.00 0.00 0.00 0.00 0.00 0.00 0.00 0.00 0.00 0.00 0.00 0.00 0.00 0.01 0.01 0.01 0.01 0.01 0.01 0.01 0.01 0.01 0.01 0.02 0.01 0.02 0.03 0.03 0.04 0.04
0.01 0.02 0.04 0.01 0.01 0.01 0.05 0.15 0.17 0.04 0.12 0.06 0.28 0.03 0.08 0.04 0.21 0.31 0.61 0.26 0.08 0.09 0.01 0.00 0.01 0.01 0.06 0.05 0.03 0.02 0.09 0.16 0.06 0.13 0.15 0.09 0.05 0.03 0.02 0.01 0.01 0.00 0.00 0.00 0.00 0.00 0.00 0.00 0.00 0.00 0.00 0.00 0.00 0.00 0.00 0.00 0.00 0.00 0.00 0.01 0.00 0.00 0.00 0.00 0.00 0.00 0.00 0.01 0.01 0.01 0.01 0.01 0.02 0.02 0.02 0.02 0.03 0.03 0.03 0.03 0.03 0.04 0.05 0.06 0.04
0.04 0.08 0.06 0.05 0.03 0.03 0.03 0.05 0.09 0.06 0.03 0.24 0.11 0.07 0.05 0.06 0.11 0.16 0.19 0.49 0.57 0.09 0.23 0.07 0.03 0.01 0.00 0.01 0.02 0.00 0.03 0.08 0.07 0.03 0.07 0.07 0.06 0.07 0.05 0.05 0.02 0.01 0.00 0.00 0.00 0.00 0.00 0.00 0.00 0.00 0.00 0.00 0.00 0.00 0.00 0.00 0.00 0.00 0.00 0.00 0.00 0.00 0.00 0.00 0.00 0.01 0.01 0.01 0.02 0.02 0.02 0.02 0.02 0.04 0.04 0.05 0.05 0.06 0.07 0.06 0.05 0.06 0.05 0.05 0.05
0.06 0.05 0.04 0.10 0.09 0.07 0.05 0.13 0.40 0.09 0.05 0.04 0.06 0.11 0.08 0.06 0.09 0.09 0.09 0.08 0.11 0.22 0.28 0.54 0.76 0.61 0.92 0.65 0.24 0.15 0.07 0.03 0.08 0.05 0.05 0.01 0.01 0.02 0.02 0.02 0.01 0.00 0.00 0.00 0.00 0.00 0.00 0.00 0.00 0.00 0.00 0.00 0.00 0.00 0.00 0.00 0.00 0.00 0.00 0.01 0.01 0.01 0.01 0.01 0.01 0.01 0.02 0.02 0.03 0.03 0.03 0.04 0.05 0.07 0.09 0.12 0.11 0.10 0.08 0.08 0.08 0.08 0.10 0.09 0.08
0.11 0.14 0.07 0.11 0.17 0.14 0.15 0.23 0.19 0.14 0.10 0.14 0.04 0.09 0.13 0.07 0.04 0.08 0.15 0.20 0.17 0.06 0.05 0.02 0.06 0.14 0.22 0.38 0.30 0.35 0.25 0.25 0.51 0.59 0.36 0.01 0.01 0.01 0.01 0.01 0.00 0.00 0.00 0.00 0.00 0.00 0.00 0.00 0.00 0.00 0.00 0.00 0.00 0.00 0.00 0.00 0.00 0.01 0.01 0.01 0.01 0.02 0.02 0.02 0.03 0.04 0.05 0.05 0.05 0.05 0.07 0.08 0.09 0.12 0.15 0.16 0.15 0.15 0.14 0.14 0.14 0.13 0.14 0.15 0.15
0.18 0.21 0.21 0.17 0.23 0.27 0.22 0.18 0.10 0.16 0.16 0.24 0.22 0.05 0.05 0.05 0.04 0.05 0.10 0.08 0.06 0.13 0.14 0.04 0.01 0.01 0.05 0.06 0.14 0.30 0.36 0.29 0.44 0.13 0.24 0.28 0.14 0.20 0.17 0.11 0.01 0.00 0.00 0.00 0.00 0.00 0.00 0.00 0.00 0.00 0.00 0.00 0.00 0.01 0.00 0.01 0.01 0.01 0.01 0.02 0.03 0.04 0.04 0.05 0.06 0.07 0.09 0.10 0.10 0.10 0.14 0.17 0.18 0.19 0.24 0.26 0.19 0.15 0.15 0.14 0.15 0.14 0.14 0.15 0.17
0.19 0.23 0.23 0.33 0.31 0.25 0.33 0.20 0.27 0.13 0.06 0.08 0.07 0.08 0.12 0.07 0.08 0.03 0.07 0.05 0.09 0.12 0.32 0.07 0.02 0.07 0.04 0.06 0.04 0.10 0.19 0.17 0.19 0.17 0.15 0.10 0.27 0.20 0.07 0.10 0.06 0.00 0.00 0.00 0.00 0.00 0.00 0.00 0.00 0.00 0.00 0.00 0.01 0.01 0.01 0.02 0.02 0.03 0.04 0.04 0.04 0.05 0.06 0.07 0.09 0.10 0.12 0.15 0.18 0.21 0.25 0.27 0.26 0.27 0.28 0.29 0.21 0.14 0.12 0.11 0.13 0.15 0.12 0.10 0.14
0.24 0.25 0.25 0.25 0.22 0.24 0.21 0.29 0.24 0.13 0.16 0.18 0.14 0.12 0.10 0.08 0.06 0.09 0.17 0.13 0.08 0.05 0.14 0.09 0.13 0.04 0.13 0.01 0.02 0.05 0.09 0.13 0.26 0.37 0.40 0.33 0.29 0.22 0.11 0.11 0.01 0.00 0.00 0.00 0.00 0.00 0.00 0.00 0.00 0.00 0.00 0.01 0.01 0.02 0.03 0.03 0.04 0.04 0.05 0.06 0.07 0.08 0.10 0.12 0.13 0.15 0.19 0.24 0.27 0.25 0.25 0.24 0.23 0.21 0.20 0.19 0.15 0.13 0.14 0.13 0.14 0.16 0.17 0.14 0.11
0.36 0.45 0.37 0.29 0.24 0.19 0.16 0.15 0.14 0.17 0.31 0.16 0.11 0.08 0.09 0.09 0.07 0.08 0.12 0.03 0.12 0.18 0.15 0.14 0.12 0.03 0.02 0.03 0.06 0.02 0.01 0.09 0.14 0.17 0.10 0.12 0.20 0.18 0.17 0.12 0.05 0.00 0.00 0.00 0.00 0.00 0.00 0.00 0.00 0.00 0.00 0.01 0.01 0.03 0.03 0.04 0.05 0.06 0.07 0.08 0.09 0.11 0.13 0.16 0.21 0.24 0.26 0.22 0.18 0.16 0.17 0.19 0.17 0.15 0.12 0.09 0.09 0.11 0.13 0.13 0.12 0.12 0.14 0.14 0.11
0.45 0.43 0.33 0.26 0.23 0.21 0.19 0.19 0.19 0.17 0.17 0.34 0.47 0.20 0.11 0.09 0.09 0.12 0.15 0.22 0.39 0.34 0.10 0.15 0.20 0.06 0.02 0.06 0.05 0.09 0.14 0.04 0.03 0.02 0.07 0.21 0.05 0.12 0.06 0.06 0.03 0.02 0.00 0.00 0.00 0.00 0.00 0.00 0.00 0.00 0.00 0.01 0.02 0.03 0.03 0.05 0.06 0.08 0.08 0.08 0.09 0.12 0.15 0.17 0.18 0.21 0.20 0.16 0.14 0.15 0.17 0.18 0.16 0.15 0.14 0.10 0.09 0.11 0.11 0.11 0.14 0.14 0.13 0.12 0.13
0.49 0.41 0.35 0.32 0.26 0.23 0.22 0.23 0.21 0.16 0.18 0.17 0.18 0.53 0.42 0.31 0.17 0.21 0.26 0.29 0.19 0.54 0.67 0.70 0.52 0.23 0.47 0.08 0.03 0.13 0.54 0.57 0.48 0.14 0.09 0.04 0.10 0.06 0.02 0.01 0.00 0.00 0.00 0.00 0.00 0.00 0.00 0.00 0.00 0.00 0.01 0.02 0.03 0.05 0.06 0.06 0.08 0.09 0.09 0.09 0.10 0.13 0.16 0.17 0.18 0.18 0.18 0.16 0.13 0.14 0.17 0.16 0.16 0.14 0.13 0.11 0.11 0.10 0.11 0.11 0.12 0.12 0.11 0.10 0.10
0.35 0.34 0.34 0.30 0.24 0.22 0.24 0.25 0.21 0.20 0.21 0.18 0.25 0.22 0.38 0.93 0.50 0.20 0.16 0.35 0.31 0.26 0.24 0.32 0.29 0.28 0.42 0.34 0.39 0.30 0.24 0.56 0.22 0.24 0.21 0.15 0.10 0.02 0.01 0.01 0.00 0.00 0.00 0.00 0.00 0.00 0.00 0.00 0.00 0.00 0.01 0.03 0.04 0.05 0.06 0.07 0.09 0.11 0.12 0.13 0.13 0.14 0.17 0.20 0.22 0.21 0.19 0.17 0.13 0.13 0.15 0.16 0.14 0.12 0.10 0.09 0.09 0.10 0.10 0.10 0.11 0.10 0.08 0.09 0.10
0.21 0.24 0.25 0.24 0.23 0.23 0.25 0.24 0.25 0.22 0.18 0.15 0.22 0.23 0.23 0.11 0.49 0.69 0.54 0.14 0.19 0.42 0.62 0.16 0.06 0.09 0.17 0.17 0.39 0.54 0.32 0.13 0.45 0.36 0.36 0.12 0.04 0.01 0.00 0.01 0.01 0.00 0.00 0.00 0.00 0.00 0.00 0.00 0.00 0.00 0.01 0.02 0.03 0.04 0.05 0.05 0.07 0.09 0.14 0.17 0.17 0.16 0.19 0.24 0.27 0.27 0.26 0.21 0.16 0.15 0.15 0.13 0.11 0.11 0.10 0.09 0.10 0.12 0.11 0.11 0.11 0.09 0.08 0.08 0.09
0.17 0.19 0.23 0.23 0.21 0.22 0.24 0.19 0.18 0.17 0.18 0.19 0.23 0.20 0.18 0.09 0.17 0.47 0.14 0.28 0.11 0.09 0.17 0.32 0.45 0.17 0.07 0.40 0.11 0.20 0.31 0.28 0.11 0.21 0.27 0.46 0.20 0.02 0.01 0.00 0.01 0.00 0.00 0.00 0.00 0.00 0.00 0.00 0.00 0.00 0.01 0.02 0.03 0.04 0.05 0.05 0.05 0.07 0.10 0.15 0.22 0.25 0.26 0.29 0.30 0.26 0.21 0.18 0.15 0.14 0.16 0.13 0.12 0.11 0.11 0.09 0.09 0.12 0.12 0.11 0.12 0.09 0.09 0.09 0.08
0.09 0.12 0.14 0.19 0.19 0.17 0.17 0.17 0.12 0.12 0.15 0.27 0.24 0.18 0.11 0.11 0.13 0.21 0.15 0.11 0.17 0.10 0.06 0.13 0.36 0.19 0.20 0.12 0.12 0.11 0.07 0.09 0.16 0.11 0.12 0.12 0.10 0.12 0.11 0.00 0.00 0.00 0.00 0.00 0.00 0.00 0.00 0.00 0.00 0.00 0.01 0.02 0.03 0.03 0.04 0.04 0.04 0.05 0.08 0.11 0.16 0.21 0.21 0.23 0.21 0.20 0.16 0.15 0.11 0.13 0.14 0.12 0.11 0.10 0.10 0.08 0.08 0.09 0.09 0.09 0.09 0.08 0.08 0.09 0.12
0.12 0.10 0.10 0.10 0.11 0.11 0.10 0.10 0.12 0.13 0.14 0.11 0.10 0.09 0.07 0.07 0.08 0.10 0.20 0.11 0.07 0.05 0.04 0.07 0.28 0.07 0.10 0.06 0.05 0.04 0.04 0.03 0.02 0.01 0.01 0.03 0.10 0.06 0.02 0.00 0.00 0.00 0.00 0.00 0.00 0.00 0.00 0.00 0.00 0.00 0.01 0.01 0.02 0.02 0.03 0.03 0.04 0.05 0.06 0.08 0.13 0.19 0.21 0.18 0.14 0.15 0.13 0.09 0.08 0.09 0.08 0.11 0.12 0.12 0.10 0.07 0.07 0.06 0.07 0.07 0.09 0.09 0.08 0.10 0.15
0.11 0.13 0.15 0.15 0.15 0.17 0.19 0.19 0.18 0.14 0.11 0.09 0.09 0.08 0.07 0.06 0.06 0.07 0.07 0.06 0.05 0.04 0.03 0.04 0.09 0.06 0.04 0.04 0.04 0.04 0.04 0.04 0.03 0.02 0.01 0.01 0.02 0.02 0.02 0.01 0.00 0.00 0.00 0.00 0.00 0.00 0.00 0.00 0.00 0.00 0.01 0.01 0.02 0.02 0.02 0.02 0.03 0.04 0.05 0.07 0.12 0.14 0.12 0.10 0.09 0.07 0.07 0.06 0.07 0.08 0.08 0.09 0.12 0.13 0.11 0.08 0.06 0.07 0.07 0.06 0.06 0.05 0.06 0.07 0.11
0.12 0.14 0.16 0.16 0.16 0.17 0.16 0.16 0.15 0.15 0.12 0.10 0.10 0.09 0.09 0.07 0.06 0.06 0.06 0.05 0.04 0.03 0.03 0.05 0.08 0.08 0.04 0.04 0.04 0.04 0.04 0.03 0.03 0.03 0.02 0.02 0.00 0.00 0.00 0.01 0.00 0.00 0.00 0.00 0.00 0.00 0.00 0.00 0.00 0.00 0.01 0.01 0.01 0.01 0.01 0.01 0.02 0.03 0.05 0.08 0.09 0.07 0.06 0.07 0.06 0.05 0.06 0.05 0.06 0.06 0.08 0.08 0.08 0.09 0.10 0.08 0.05 0.06 0.08 0.07 0.07 0.09 0.09 0.08 0.10
0.02 0.04 0.06 0.08 0.11 0.13 0.15 0.15 0.15 0.15 0.13 0.11 0.09 0.08 0.07 0.06 0.06 0.06 0.05 0.04 0.04 0.03 0.03 0.03 0.06 0.06 0.04 0.04 0.03 0.03 0.04 0.02 0.02 0.02 0.02 0.04 0.01 0.01 0.00 0.00 0.00 0.00 0.00 0.00 0.00 0.00 0.00 0.00 0.00 0.00 0.00 0.01 0.01 0.01 0.01 0.01 0.01 0.02 0.03 0.04 0.04 0.05 0.04 0.03 0.03 0.03 0.03 0.04 0.05 0.06 0.08 0.09 0.12 0.11 0.09 0.08 0.07 0.05 0.07 0.11 0.13 0.14 0.14 0.13 0.13
0.01 0.01 0.02 0.02 0.02 0.04 0.05 0.06 0.08 0.08 0.09 0.08 0.07 0.06 0.06 0.06 0.06 0.05 0.05 0.04 0.03 0.03 0.02 0.03 0.03 0.03 0.02 0.03 0.04 0.03 0.03 0.03 0.02 0.02 0.03 0.03 0.01 0.01 0.00 0.00 0.00 0.00 0.00 0.00 0.00 0.00 0.00 0.00 0.00 0.00 0.00 0.00 0.00 0.01 0.01 0.01 0.01 0.01 0.01 0.02 0.03 0.03 0.03 0.02 0.02 0.02 0.02 0.03 0.04 0.05 0.05 0.05 0.08 0.09 0.10 0.10 0.10 0.09 0.09 0.09 0.09 0.10 0.13 0.15 0.21